Regional Weather Roundup
Issued by NWS Mt. Holly, NJ

Home | Current Version | Previous Version | Text Only | Print | Product List | Glossary On
Versions: 1 2 3 4 5 6 7 8 9 10 11 12 13 14 15 16 17 18 19 20 21 22 23 24 25 26 27 28 29 30 31 32 33 34 35 36 37 38 39 40 41 42 43 44 45 46 47 48 49 50
000
ASUS41 KPHI 250111
RWRPHI

REGIONAL WEATHER ROUNDUP
NATIONAL WEATHER SERVICE MOUNT HOLLY NJ
800 PM EST FRI FEB 24 2017

NOTE:  "FAIR" INDICATES FEW OR NO CLOUDS BELOW 12,000 FEET WITH NO
SIGNIFICANT WEATHER AND/OR OBSTRUCTIONS TO VISIBILITY.

 * = STATION DOES NOT REPORT PRECIPITATION (E.G. RAIN, SNOW, ETC.)
        OR FOG.

NJZ015>026-250200-
SOUTHERN NEW JERSEY

CITY           SKY/WX    TMP DP  RH WIND       PRES   REMARKS
POMONA         PTCLDY    58  55  90 S9        29.87F
WILDWOOD*      CLOUDY    55  55 100 S13       29.88S FOG
MILLVILLE      MOCLDY    58  58 100 S6        29.86S
WRIGHTSTOWN    CLEAR     61  56  86 S12       29.84S
MOUNT HOLLY    CLEAR     61  56  83 VRB5      29.85S
TRENTON        CLEAR     63  56  78 S10       29.84S

$$
NJZ001>014-250200-
NORTHERN NEW JERSEY

CITY           SKY/WX    TMP DP  RH WIND       PRES   REMARKS
SUSSEX         CLEAR     64  52  64 S3        29.82F
ANDOVER*         N/A     64  51  62 VRB5      29.82F
MORRISTOWN     CLEAR     64  54  68 S7        29.85R
NEWARK         PTCLDY    64  55  72 S7        29.85S
TETERBORO      CLEAR     62  55  77 S8        29.84S
CALDWELL       CLEAR     66  53  63 S7        29.85R
SOMERVILLE     CLEAR     64  52  64 SE6       29.82S
ALLAIRE*       CLEAR     56  55  97 S8        29.88F
TOMS RIVER*    MOCLDY    57  56  96 S12       29.88F

$$
PAZ043-044-047-054-055-060>062-066>071-250200-
EASTERN PENNSYLVANIA

CITY           SKY/WX    TMP DP  RH WIND       PRES   REMARKS
PHILADELPHIA   PTCLDY    63  56  78 SE9       29.85S
NORTH PHILA    CLEAR     65  56  72 S5        29.86R
BLUE BELL*     CLEAR     61  55  82 S6        29.83S
DOYLESTOWN     CLEAR     64  56  75 S8        29.83S
QUAKERTOWN*    CLEAR     64  55  72 S8G16     29.83F
PERKASIE*      FAIR      63  55  77 S3        29.84S
POTTSTOWN      CLEAR     62  54  74 VRB6      29.84S
LANCASTER      CLEAR     61  53  75 SE8       29.81R
COATESVILLE    CLEAR     61  54  77 SE6       29.84S
READING        CLEAR     65  55  70 SE9       29.80S
ALLENTOWN      PTCLDY    66  53  63 S9G20     29.81F
MOUNT POCONO   CLOUDY    59  51  75 S9        29.83F
HAZLETON       CLEAR     61  50  67 SE12G20   29.83F
LEHIGHTON      FAIR      64  50  59 S9        29.82S
WILKES BARRE   CLEAR     66  50  56 S8        29.78F

$$
DEZALL-MDZ008-012-015-019-020-250200-
DELAWARE AND EASTERN MARYLAND

CITY           SKY/WX    TMP DP  RH WIND       PRES   REMARKS
WILMINGTON     CLEAR     54  52  93 S13       29.84S
DOVER          CLEAR     62  62 100 S10       29.84S
GEORGETOWN     CLEAR     62  58  86 S12       29.87S
EASTON         CLEAR     66  59  77 S12G20    29.87F
ABERDEEN       PTCLDY    65  55  72 S8        29.82F
PATUXENT       PTCLDY    60  59  96 SE10      29.84S
OCEAN CITY     PTCLDY    54  52  93 S7        29.88F
WALLOPS ISLAND CLEAR     58  56  93 S9        29.88F
CAMBRIDGE      PTCLDY    63  59  88 S10G21    29.84S
SALISBURY      CLEAR     62  59  90 SE8       29.86F

$$
PAZ001-021-NYZ056-072-MDZ011-DCZ001-250200-
OTHER NEARBY LOCATIONS

CITY           SKY/WX    TMP DP  RH WIND       PRES   REMARKS
HARRISBURG     PTCLDY    64  54  69 S12G20    29.77F
WILLIAMSPORT   CLOUDY    68  52  56 SE15G29   29.73R
BINGHAMTON     CLOUDY    62  49  62 S10G22    29.74S
NEW YORK CITY  CLEAR     62  54  74 S6        29.88S
BALTIMORE      PTCLDY    63  59  87 S13G20    29.81S
WASHINGTON DC  PTCLDY    64  56  75 S10       29.80F

$$



USA.gov is the U.S. government's official web portal to all federal, state and local government web resources and services.